Year,Month,Day,Hour,Minute,Value (Times are PST for temperature in C)
2003,07,18,00,00,17.50
2003,07,18,00,01,17.50
2003,07,18,00,02,17.50
2003,07,18,00,03,17.50
2003,07,18,00,04,17.50
2003,07,18,00,05,17.40
2003,07,18,00,06,17.40
2003,07,18,00,07,17.30
2003,07,18,00,08,17.30
2003,07,18,00,09,17.30
2003,07,18,00,10,17.20
2003,07,18,00,11,17.10
2003,07,18,00,12,17.10
2003,07,18,00,13,17.10
2003,07,18,00,14,17.10
2003,07,18,00,15,17.00
2003,07,18,00,16,17.00
2003,07,18,00,17,17.00
2003,07,18,00,18,16.90
2003,07,18,00,19,16.90
2003,07,18,00,20,16.80
2003,07,18,00,21,16.80
2003,07,18,00,22,16.70
2003,07,18,00,23,16.70
2003,07,18,00,24,16.70
2003,07,18,00,25,16.70
2003,07,18,00,26,16.60
2003,07,18,00,27,16.60
2003,07,18,00,28,16.50
2003,07,18,00,29,16.40
2003,07,18,00,30,16.40
2003,07,18,00,31,16.30
2003,07,18,00,32,16.30
2003,07,18,00,33,16.20
2003,07,18,00,34,16.10
2003,07,18,00,35,16.10
2003,07,18,00,36,16.10
2003,07,18,00,37,16.10
2003,07,18,00,38,16.10
2003,07,18,00,39,16.10
2003,07,18,00,40,16.10
2003,07,18,00,41,16.10
2003,07,18,00,42,15.90
2003,07,18,00,43,15.90
2003,07,18,00,44,15.90
2003,07,18,00,45,16.00
2003,07,18,00,46,15.90
2003,07,18,00,47,15.90
2003,07,18,00,48,15.90
2003,07,18,00,49,15.80
2003,07,18,00,50,15.80
2003,07,18,00,51,15.80
2003,07,18,00,52,15.80
2003,07,18,00,53,15.80
2003,07,18,00,54,15.80
2003,07,18,00,55,15.70
2003,07,18,00,56,15.70
2003,07,18,00,57,15.70
2003,07,18,00,58,15.70
2003,07,18,00,59,15.70
2003,07,18,01,00,15.70
2003,07,18,01,01,15.70
2003,07,18,01,02,15.80
2003,07,18,01,03,15.80
2003,07,18,01,04,15.80
2003,07,18,01,05,15.80
2003,07,18,01,06,15.80
2003,07,18,01,07,15.90
2003,07,18,01,08,15.90
2003,07,18,01,09,15.90
2003,07,18,01,10,16.10
2003,07,18,01,11,16.10
2003,07,18,01,12,16.10
2003,07,18,01,13,16.10
2003,07,18,01,14,16.00
2003,07,18,01,15,15.90
2003,07,18,01,16,15.90
2003,07,18,01,17,15.90
2003,07,18,01,18,16.00
2003,07,18,01,19,16.10
2003,07,18,01,20,16.10
2003,07,18,01,21,16.10
2003,07,18,01,22,16.10
2003,07,18,01,23,16.10
2003,07,18,01,24,15.90
2003,07,18,01,25,15.90
2003,07,18,01,26,15.90
2003,07,18,01,27,15.90
2003,07,18,01,28,15.90
2003,07,18,01,29,15.90
2003,07,18,01,30,15.90
2003,07,18,01,31,15.90
2003,07,18,01,32,15.90
2003,07,18,01,33,15.90
2003,07,18,01,34,15.90
2003,07,18,01,35,15.80
2003,07,18,01,36,15.80
2003,07,18,01,37,15.90
2003,07,18,01,38,15.90
2003,07,18,01,39,15.80
2003,07,18,01,40,15.70
2003,07,18,01,41,15.50
2003,07,18,01,42,15.40
2003,07,18,01,43,15.40
2003,07,18,01,44,15.40
2003,07,18,01,45,15.50
2003,07,18,01,46,15.60
2003,07,18,01,47,15.60
2003,07,18,01,48,15.50
2003,07,18,01,49,15.40
2003,07,18,01,50,15.40
2003,07,18,01,51,15.50
2003,07,18,01,52,15.60
2003,07,18,01,53,15.70
2003,07,18,01,54,15.80
2003,07,18,01,55,15.80
2003,07,18,01,56,15.80
2003,07,18,01,57,15.80
2003,07,18,01,58,15.80
2003,07,18,01,59,15.80
2003,07,18,02,00,15.80
2003,07,18,02,01,15.70
2003,07,18,02,02,15.60
2003,07,18,02,03,15.60
2003,07,18,02,04,15.60
2003,07,18,02,05,15.60
2003,07,18,02,06,15.70
2003,07,18,02,07,15.70
2003,07,18,02,08,15.70
2003,07,18,02,09,15.70
2003,07,18,02,10,15.60
2003,07,18,02,11,15.50
2003,07,18,02,12,15.40
2003,07,18,02,13,15.40
2003,07,18,02,14,15.30
2003,07,18,02,15,15.20
2003,07,18,02,16,15.10
2003,07,18,02,17,15.10
2003,07,18,02,18,15.20
2003,07,18,02,19,15.30
2003,07,18,02,20,15.20
2003,07,18,02,21,15.20
2003,07,18,02,22,15.20
2003,07,18,02,23,15.20
2003,07,18,02,24,15.30
2003,07,18,02,25,15.40
2003,07,18,02,26,15.40
2003,07,18,02,27,15.40
2003,07,18,02,28,15.40
2003,07,18,02,29,15.50
2003,07,18,02,30,15.50
2003,07,18,02,31,15.50
2003,07,18,02,32,15.40
2003,07,18,02,33,15.40
2003,07,18,02,34,15.40
2003,07,18,02,35,15.30
2003,07,18,02,36,15.30
2003,07,18,02,37,15.30
2003,07,18,02,38,15.30
2003,07,18,02,39,15.30
2003,07,18,02,40,15.20
2003,07,18,02,41,15.10
2003,07,18,02,42,15.10
2003,07,18,02,43,15.00
2003,07,18,02,44,15.00
2003,07,18,02,45,14.90
2003,07,18,02,46,14.80
2003,07,18,02,47,14.80
2003,07,18,02,48,14.70
2003,07,18,02,49,14.70
2003,07,18,02,50,14.80
2003,07,18,02,51,14.80
2003,07,18,02,52,14.80
2003,07,18,02,53,14.80
2003,07,18,02,54,14.80
2003,07,18,02,55,14.80
2003,07,18,02,56,14.80
2003,07,18,02,57,14.80
2003,07,18,02,58,14.80
2003,07,18,02,59,14.70
2003,07,18,03,00,14.70
2003,07,18,03,01,14.60
2003,07,18,03,02,14.70
2003,07,18,03,03,14.70
2003,07,18,03,04,14.70
2003,07,18,03,05,14.70
2003,07,18,03,06,14.70
2003,07,18,03,07,14.60
2003,07,18,03,08,14.70
2003,07,18,03,09,14.70
2003,07,18,03,10,14.80
2003,07,18,03,11,14.80
2003,07,18,03,12,14.70
2003,07,18,03,13,14.70
2003,07,18,03,14,14.70
2003,07,18,03,15,14.70
2003,07,18,03,16,14.80
2003,07,18,03,17,14.80
2003,07,18,03,18,14.80
2003,07,18,03,19,14.80
2003,07,18,03,20,14.70
2003,07,18,03,21,14.70
2003,07,18,03,22,14.70
2003,07,18,03,23,14.70
2003,07,18,03,24,14.70
2003,07,18,03,25,14.70
2003,07,18,03,26,14.70
2003,07,18,03,27,14.70
2003,07,18,03,28,14.80
2003,07,18,03,29,14.80
2003,07,18,03,30,14.80
2003,07,18,03,31,14.80
2003,07,18,03,32,14.80
2003,07,18,03,33,14.90
2003,07,18,03,34,14.90
2003,07,18,03,35,14.90
2003,07,18,03,36,14.90
2003,07,18,03,37,14.90
2003,07,18,03,38,14.80
2003,07,18,03,39,14.80
2003,07,18,03,40,14.80
2003,07,18,03,41,14.80
2003,07,18,03,42,14.80
2003,07,18,03,43,14.70
2003,07,18,03,44,14.60
2003,07,18,03,45,14.60
2003,07,18,03,46,14.60
2003,07,18,03,47,14.70
2003,07,18,03,48,14.70
2003,07,18,03,49,14.80
2003,07,18,03,50,14.80
2003,07,18,03,51,14.80
2003,07,18,03,52,14.80
2003,07,18,03,53,14.80
2003,07,18,03,54,14.80
2003,07,18,03,55,14.80
2003,07,18,03,56,14.80
2003,07,18,03,57,14.80
2003,07,18,03,58,14.80
2003,07,18,03,59,14.70
2003,07,18,04,00,14.70
2003,07,18,04,01,14.60
2003,07,18,04,02,14.60
2003,07,18,04,03,14.60
2003,07,18,04,04,14.60
2003,07,18,04,05,14.60
2003,07,18,04,06,14.50
2003,07,18,04,07,14.50
2003,07,18,04,08,14.40
2003,07,18,04,09,14.30
2003,07,18,04,10,14.20
2003,07,18,04,11,14.20
2003,07,18,04,12,14.20
2003,07,18,04,13,14.20
2003,07,18,04,14,14.20
2003,07,18,04,15,14.20
2003,07,18,04,16,14.20
2003,07,18,04,17,14.20
2003,07,18,04,18,14.20
2003,07,18,04,19,14.10
2003,07,18,04,20,14.00
2003,07,18,04,21,13.90
2003,07,18,04,22,13.80
2003,07,18,04,23,13.80
2003,07,18,04,24,13.70
2003,07,18,04,25,13.70
2003,07,18,04,26,13.70
2003,07,18,04,27,13.70
2003,07,18,04,28,13.70
2003,07,18,04,29,13.60
2003,07,18,04,30,13.50
2003,07,18,04,31,13.50
2003,07,18,04,32,13.40
2003,07,18,04,33,13.30
2003,07,18,04,34,13.30
2003,07,18,04,35,13.30
2003,07,18,04,36,13.30
2003,07,18,04,37,13.30
2003,07,18,04,38,13.30
2003,07,18,04,39,13.20
2003,07,18,04,40,13.20
2003,07,18,04,41,13.30
2003,07,18,04,42,13.30
2003,07,18,04,43,13.40
2003,07,18,04,44,13.40
2003,07,18,04,45,13.40
2003,07,18,04,46,13.30
2003,07,18,04,47,13.30
2003,07,18,04,48,13.40
2003,07,18,04,49,13.40
2003,07,18,04,50,13.50
2003,07,18,04,51,13.40
2003,07,18,04,52,13.40
2003,07,18,04,53,13.50
2003,07,18,04,54,13.60
2003,07,18,04,55,13.60
2003,07,18,04,56,13.60
2003,07,18,04,57,13.60
2003,07,18,04,58,13.60
2003,07,18,04,59,13.60
2003,07,18,05,00,13.70
2003,07,18,05,01,13.70
2003,07,18,05,02,13.70
2003,07,18,05,03,13.70
2003,07,18,05,04,13.60
2003,07,18,05,05,13.60
2003,07,18,05,06,13.60
2003,07,18,05,07,13.60
2003,07,18,05,08,13.60
2003,07,18,05,09,13.50
2003,07,18,05,10,13.40
2003,07,18,05,11,13.30
2003,07,18,05,12,13.40
2003,07,18,05,13,13.50
2003,07,18,05,14,13.50
2003,07,18,05,15,13.50
2003,07,18,05,16,13.50
2003,07,18,05,17,13.50
2003,07,18,05,18,13.60
2003,07,18,05,19,13.70
2003,07,18,05,20,13.80
2003,07,18,05,21,13.80
2003,07,18,05,22,13.70
2003,07,18,05,23,13.70
2003,07,18,05,24,13.60
2003,07,18,05,25,13.50
2003,07,18,05,26,13.40
2003,07,18,05,27,13.30
2003,07,18,05,28,13.20
2003,07,18,05,29,13.20
2003,07,18,05,30,13.20
2003,07,18,05,31,13.20
2003,07,18,05,32,13.30
2003,07,18,05,33,13.30
2003,07,18,05,34,13.30
2003,07,18,05,35,13.30
2003,07,18,05,36,13.40
2003,07,18,05,37,13.50
2003,07,18,05,38,13.60
2003,07,18,05,39,13.60
2003,07,18,05,40,13.60
2003,07,18,05,41,13.60
2003,07,18,05,42,13.70
2003,07,18,05,43,13.70
2003,07,18,05,44,13.70
2003,07,18,05,45,13.70
2003,07,18,05,46,13.70
2003,07,18,05,47,13.70
2003,07,18,05,48,13.70
2003,07,18,05,49,13.70
2003,07,18,05,50,13.70
2003,07,18,05,51,13.70
2003,07,18,05,52,13.70
2003,07,18,05,53,13.70
2003,07,18,05,54,13.70
2003,07,18,05,55,13.70
2003,07,18,05,56,13.60
2003,07,18,05,57,13.60
2003,07,18,05,58,13.50
2003,07,18,05,59,13.50
2003,07,18,06,00,13.60
2003,07,18,06,01,13.60
2003,07,18,06,02,13.70
2003,07,18,06,03,13.70
2003,07,18,06,04,13.70
2003,07,18,06,05,13.70
2003,07,18,06,06,13.80
2003,07,18,06,07,13.90
2003,07,18,06,08,13.90
2003,07,18,06,09,13.90
2003,07,18,06,10,13.90
2003,07,18,06,11,13.90
2003,07,18,06,12,13.90
2003,07,18,06,13,13.90
2003,07,18,06,14,13.90
2003,07,18,06,15,13.90
2003,07,18,06,16,13.90
2003,07,18,06,17,13.80
2003,07,18,06,18,13.80
2003,07,18,06,19,13.80
2003,07,18,06,20,13.90
2003,07,18,06,21,13.90
2003,07,18,06,22,13.90
2003,07,18,06,23,14.00
2003,07,18,06,24,14.00
2003,07,18,06,25,14.10
2003,07,18,06,26,14.20
2003,07,18,06,27,14.20
2003,07,18,06,28,14.30
2003,07,18,06,29,14.40
2003,07,18,06,30,14.50
2003,07,18,06,31,14.60
2003,07,18,06,32,14.60
2003,07,18,06,33,14.70
2003,07,18,06,34,14.70
2003,07,18,06,35,14.80
2003,07,18,06,36,14.80
2003,07,18,06,37,14.90
2003,07,18,06,38,15.00
2003,07,18,06,39,15.00
2003,07,18,06,40,15.10
2003,07,18,06,41,15.10
2003,07,18,06,42,15.20
2003,07,18,06,43,15.30
2003,07,18,06,44,15.40
2003,07,18,06,45,15.50
2003,07,18,06,46,15.50
2003,07,18,06,47,15.60
2003,07,18,06,48,15.60
2003,07,18,06,49,15.70
2003,07,18,06,50,15.70
2003,07,18,06,51,15.80
2003,07,18,06,52,15.80
2003,07,18,06,53,15.80
2003,07,18,06,54,15.90
2003,07,18,06,55,15.90
2003,07,18,06,56,15.90
2003,07,18,06,57,16.10
2003,07,18,06,58,16.10
2003,07,18,06,59,16.10
2003,07,18,07,00,16.10
2003,07,18,07,01,16.20
2003,07,18,07,02,16.20
2003,07,18,07,03,16.20
2003,07,18,07,04,16.30
2003,07,18,07,05,16.40
2003,07,18,07,06,16.50
2003,07,18,07,07,16.60
2003,07,18,07,08,16.70
2003,07,18,07,09,16.90
2003,07,18,07,10,17.00
2003,07,18,07,11,17.00
2003,07,18,07,12,17.10
2003,07,18,07,13,17.30
2003,07,18,07,14,17.30
2003,07,18,07,15,17.40
2003,07,18,07,16,17.50
2003,07,18,07,17,17.50
2003,07,18,07,18,17.50
2003,07,18,07,19,17.60
2003,07,18,07,20,17.70
2003,07,18,07,21,17.70
2003,07,18,07,22,17.80
2003,07,18,07,23,17.80
2003,07,18,07,24,17.80
2003,07,18,07,25,17.90
2003,07,18,07,26,17.90
2003,07,18,07,27,18.00
2003,07,18,07,28,18.10
2003,07,18,07,29,18.20
2003,07,18,07,30,18.20
2003,07,18,07,31,18.20
2003,07,18,07,32,18.20
2003,07,18,07,33,18.30
2003,07,18,07,34,18.40
2003,07,18,07,35,18.50
2003,07,18,07,36,18.50
2003,07,18,07,37,18.60
2003,07,18,07,38,18.70
2003,07,18,07,39,18.70
2003,07,18,07,40,18.80
2003,07,18,07,41,18.90
2003,07,18,07,42,19.00
2003,07,18,07,43,19.20
2003,07,18,07,44,19.30
2003,07,18,07,45,19.50
2003,07,18,07,46,19.70
2003,07,18,07,47,19.90
2003,07,18,07,48,20.10
2003,07,18,07,49,20.30
2003,07,18,07,50,20.40
2003,07,18,07,51,20.30
2003,07,18,07,52,20.30
2003,07,18,07,53,20.20
2003,07,18,07,54,20.10
2003,07,18,07,55,20.00
2003,07,18,07,56,20.00
2003,07,18,07,57,19.90
2003,07,18,07,58,19.90
2003,07,18,07,59,19.90
2003,07,18,08,00,19.80
2003,07,18,08,01,19.50
2003,07,18,08,02,19.30
2003,07,18,08,03,19.00
2003,07,18,08,04,18.70
2003,07,18,08,05,18.50
2003,07,18,08,06,18.40
2003,07,18,08,07,18.30
2003,07,18,08,08,18.30
2003,07,18,08,09,18.30
2003,07,18,08,10,18.40
2003,07,18,08,11,18.40
2003,07,18,08,12,18.40
2003,07,18,08,13,18.30
2003,07,18,08,14,18.40
2003,07,18,08,15,18.50
2003,07,18,08,16,18.70
2003,07,18,08,17,18.90
2003,07,18,08,18,19.00
2003,07,18,08,19,19.10
2003,07,18,08,20,19.20
2003,07,18,08,21,19.30
2003,07,18,08,22,19.30
2003,07,18,08,23,19.30
2003,07,18,08,24,19.40
2003,07,18,08,25,19.40
2003,07,18,08,26,19.50
2003,07,18,08,27,19.60
2003,07,18,08,28,19.50
2003,07,18,08,29,19.40
2003,07,18,08,30,19.50
2003,07,18,08,31,19.60
2003,07,18,08,32,19.60
2003,07,18,08,33,19.70
2003,07,18,08,34,19.70
2003,07,18,08,35,19.70
2003,07,18,08,36,19.90
2003,07,18,08,37,19.80
2003,07,18,08,38,19.90
2003,07,18,08,39,20.10
2003,07,18,08,40,20.40
2003,07,18,08,41,20.70
2003,07,18,08,42,20.90
2003,07,18,08,43,20.90
2003,07,18,08,44,21.10
2003,07,18,08,45,21.30
2003,07,18,08,46,21.40
2003,07,18,08,47,21.50
2003,07,18,08,48,21.60
2003,07,18,08,49,21.60
2003,07,18,08,50,21.40
2003,07,18,08,51,21.10
2003,07,18,08,52,20.80
2003,07,18,08,53,20.60
2003,07,18,08,54,20.50
2003,07,18,08,55,20.40
2003,07,18,08,56,20.30
2003,07,18,08,57,20.30
2003,07,18,08,58,20.20
2003,07,18,08,59,20.20
2003,07,18,09,00,20.00
2003,07,18,09,01,19.90
2003,07,18,09,02,19.80
2003,07,18,09,03,19.70
2003,07,18,09,04,19.70
2003,07,18,09,05,19.70
2003,07,18,09,06,19.70
2003,07,18,09,07,19.60
2003,07,18,09,08,19.50
2003,07,18,09,09,19.60
2003,07,18,09,10,19.50
2003,07,18,09,11,19.50
2003,07,18,09,12,19.50
2003,07,18,09,13,19.50
2003,07,18,09,14,19.50
2003,07,18,09,15,19.60
2003,07,18,09,16,19.60
2003,07,18,09,17,19.50
2003,07,18,09,18,19.60
2003,07,18,09,19,19.60
2003,07,18,09,20,19.60
2003,07,18,09,21,19.40
2003,07,18,09,22,19.30
2003,07,18,09,23,19.30
2003,07,18,09,24,19.20
2003,07,18,09,25,19.20
2003,07,18,09,26,19.20
2003,07,18,09,27,19.10
2003,07,18,09,28,19.10
2003,07,18,09,29,19.10
2003,07,18,09,30,19.10
2003,07,18,09,31,19.10
2003,07,18,09,32,19.20
2003,07,18,09,33,19.50
2003,07,18,09,34,19.50
2003,07,18,09,35,19.40
2003,07,18,09,36,19.40
2003,07,18,09,37,19.40
2003,07,18,09,38,19.60
2003,07,18,09,39,19.60
2003,07,18,09,40,19.70
2003,07,18,09,41,19.80
2003,07,18,09,42,19.80
2003,07,18,09,43,19.70
2003,07,18,09,44,19.70
2003,07,18,09,45,19.70
2003,07,18,09,46,19.90
2003,07,18,09,47,20.00
2003,07,18,09,48,20.00
2003,07,18,09,49,19.90
2003,07,18,09,50,19.90
2003,07,18,09,51,19.90
2003,07,18,09,52,19.70
2003,07,18,09,53,19.60
2003,07,18,09,54,19.60
2003,07,18,09,55,19.50
2003,07,18,09,56,19.60
2003,07,18,09,57,19.60
2003,07,18,09,58,19.60
2003,07,18,09,59,19.60
2003,07,18,10,00,19.60
2003,07,18,10,01,19.60
2003,07,18,10,02,19.60
2003,07,18,10,03,19.50
2003,07,18,10,04,19.50
2003,07,18,10,05,19.60
2003,07,18,10,06,19.70
2003,07,18,10,07,19.70
2003,07,18,10,08,19.70
2003,07,18,10,09,19.70
2003,07,18,10,10,19.60
2003,07,18,10,11,19.50
2003,07,18,10,12,19.40
2003,07,18,10,13,19.50
2003,07,18,10,14,19.50
2003,07,18,10,15,19.70
2003,07,18,10,16,19.80
2003,07,18,10,17,19.80
2003,07,18,10,18,19.90
2003,07,18,10,19,19.90
2003,07,18,10,20,19.90
2003,07,18,10,21,19.80
2003,07,18,10,22,19.70
2003,07,18,10,23,19.80
2003,07,18,10,24,19.70
2003,07,18,10,25,19.60
2003,07,18,10,26,19.70
2003,07,18,10,27,19.90
2003,07,18,10,28,20.20
2003,07,18,10,29,20.40
2003,07,18,10,30,20.40
2003,07,18,10,31,20.50
2003,07,18,10,32,20.60
2003,07,18,10,33,20.60
2003,07,18,10,34,20.70
2003,07,18,10,35,20.60
2003,07,18,10,36,20.80
2003,07,18,10,37,20.80
2003,07,18,10,38,20.70
2003,07,18,10,39,20.70
2003,07,18,10,40,20.80
2003,07,18,10,41,20.80
2003,07,18,10,42,20.80
2003,07,18,10,43,20.80
2003,07,18,10,44,20.90
2003,07,18,10,45,20.90
2003,07,18,10,46,20.90
2003,07,18,10,47,20.90
2003,07,18,10,48,21.00
2003,07,18,10,49,21.10
2003,07,18,10,50,21.20
2003,07,18,10,51,21.20
2003,07,18,10,52,21.20
2003,07,18,10,53,21.30
2003,07,18,10,54,21.30
2003,07,18,10,55,21.30
2003,07,18,10,56,21.40
2003,07,18,10,57,21.60
2003,07,18,10,58,21.60
2003,07,18,10,59,21.60
2003,07,18,11,00,21.60
2003,07,18,11,01,21.60
2003,07,18,11,02,21.70
2003,07,18,11,03,21.90
2003,07,18,11,04,21.70
2003,07,18,11,05,21.60
2003,07,18,11,06,21.60
2003,07,18,11,07,21.50
2003,07,18,11,08,21.50
2003,07,18,11,09,21.40
2003,07,18,11,10,21.40
2003,07,18,11,11,21.30
2003,07,18,11,12,21.30
2003,07,18,11,13,21.30
2003,07,18,11,14,21.20
2003,07,18,11,15,21.30
2003,07,18,11,16,21.30
2003,07,18,11,17,21.30
2003,07,18,11,18,21.30
2003,07,18,11,19,21.30
2003,07,18,11,20,21.10
2003,07,18,11,21,21.00
2003,07,18,11,22,21.00
2003,07,18,11,23,21.10
2003,07,18,11,24,21.10
2003,07,18,11,25,21.10
2003,07,18,11,26,21.10
2003,07,18,11,27,21.10
2003,07,18,11,28,21.20
2003,07,18,11,29,21.30
2003,07,18,11,30,21.30
2003,07,18,11,31,21.10
2003,07,18,11,32,21.10
2003,07,18,11,33,21.20
2003,07,18,11,34,21.40
2003,07,18,11,35,21.60
2003,07,18,11,36,21.50
2003,07,18,11,37,21.50
2003,07,18,11,38,21.60
2003,07,18,11,39,21.60
2003,07,18,11,40,21.70
2003,07,18,11,41,21.80
2003,07,18,11,42,21.80
2003,07,18,11,43,21.80
2003,07,18,11,44,21.60
2003,07,18,11,45,21.60
2003,07,18,11,46,21.60
2003,07,18,11,47,21.80
2003,07,18,11,48,21.80
2003,07,18,11,49,21.70
2003,07,18,11,50,21.70
2003,07,18,11,51,21.80
2003,07,18,11,52,21.80
2003,07,18,11,53,21.80
2003,07,18,11,54,21.90
2003,07,18,11,55,22.00
2003,07,18,11,56,21.90
2003,07,18,11,57,22.00
2003,07,18,11,58,22.00
2003,07,18,11,59,22.00
2003,07,18,12,00,22.00
2003,07,18,12,01,22.00
2003,07,18,12,02,22.00
2003,07,18,12,03,22.00
2003,07,18,12,04,22.00
2003,07,18,12,05,22.10
2003,07,18,12,06,22.00
2003,07,18,12,07,22.00
2003,07,18,12,08,21.90
2003,07,18,12,09,21.80
2003,07,18,12,10,21.70
2003,07,18,12,11,21.70
2003,07,18,12,12,21.70
2003,07,18,12,13,21.60
2003,07,18,12,14,21.60
2003,07,18,12,15,21.60
2003,07,18,12,16,21.60
2003,07,18,12,17,21.60
2003,07,18,12,18,21.60
2003,07,18,12,19,21.70
2003,07,18,12,20,21.60
2003,07,18,12,21,21.70
2003,07,18,12,22,21.70
2003,07,18,12,23,21.60
2003,07,18,12,24,21.70
2003,07,18,12,25,21.70
2003,07,18,12,26,21.70
2003,07,18,12,27,21.70
2003,07,18,12,28,21.70
2003,07,18,12,29,21.70
2003,07,18,12,30,21.70
2003,07,18,12,31,21.80
2003,07,18,12,32,21.90
2003,07,18,12,33,21.90
2003,07,18,12,34,21.90
2003,07,18,12,35,21.90
2003,07,18,12,36,22.00
2003,07,18,12,37,22.00
2003,07,18,12,38,22.00
2003,07,18,12,39,22.00
2003,07,18,12,40,22.00
2003,07,18,12,41,22.30
2003,07,18,12,42,22.40
2003,07,18,12,43,22.40
2003,07,18,12,44,22.50
2003,07,18,12,45,22.60
2003,07,18,12,46,22.70
2003,07,18,12,47,22.60
2003,07,18,12,48,22.70
2003,07,18,12,49,22.90
2003,07,18,12,50,22.90
2003,07,18,12,51,23.10
2003,07,18,12,52,23.30
2003,07,18,12,53,23.30
2003,07,18,12,54,23.30
2003,07,18,12,55,23.30
2003,07,18,12,56,23.50
2003,07,18,12,57,23.50
2003,07,18,12,58,23.30
2003,07,18,12,59,23.30
2003,07,18,13,00,23.20
2003,07,18,13,01,23.30
2003,07,18,13,02,23.40
2003,07,18,13,03,23.40
2003,07,18,13,04,23.30
2003,07,18,13,05,23.40
2003,07,18,13,06,23.50
2003,07,18,13,07,23.70
2003,07,18,13,08,23.70
2003,07,18,13,09,23.70
2003,07,18,13,10,23.70
2003,07,18,13,11,23.60
2003,07,18,13,12,23.50
2003,07,18,13,13,23.40
2003,07,18,13,14,23.30
2003,07,18,13,15,23.30
2003,07,18,13,16,23.30
2003,07,18,13,17,23.40
2003,07,18,13,18,23.70
2003,07,18,13,19,23.80
2003,07,18,13,20,24.10
2003,07,18,13,21,24.40
2003,07,18,13,22,24.40
2003,07,18,13,23,24.80
2003,07,18,13,24,24.90
2003,07,18,13,25,24.90
2003,07,18,13,26,25.00
2003,07,18,13,27,25.30
2003,07,18,13,28,25.30
2003,07,18,13,29,25.20
2003,07,18,13,30,25.00
2003,07,18,13,31,25.00
2003,07,18,13,32,25.10
2003,07,18,13,33,24.90
2003,07,18,13,34,24.60
2003,07,18,13,35,24.60
2003,07,18,13,36,24.80
2003,07,18,13,37,24.80
2003,07,18,13,38,24.90
2003,07,18,13,39,25.00
2003,07,18,13,40,25.00
2003,07,18,13,41,24.90
2003,07,18,13,42,25.00
2003,07,18,13,43,25.30
2003,07,18,13,44,25.40
2003,07,18,13,45,25.40
2003,07,18,13,46,25.20
2003,07,18,13,47,25.10
2003,07,18,13,48,24.90
2003,07,18,13,49,24.90
2003,07,18,13,50,24.70
2003,07,18,13,51,24.60
2003,07,18,13,52,24.60
2003,07,18,13,53,24.70
2003,07,18,13,54,24.70
2003,07,18,13,55,24.80
2003,07,18,13,56,24.80
2003,07,18,13,57,24.80
2003,07,18,13,58,25.10
2003,07,18,13,59,25.20
2003,07,18,14,00,25.00
2003,07,18,14,01,25.00
2003,07,18,14,02,25.00
2003,07,18,14,03,25.00
2003,07,18,14,04,25.10
2003,07,18,14,05,25.20
2003,07,18,14,06,25.40
2003,07,18,14,07,25.50
2003,07,18,14,08,25.80
2003,07,18,14,09,26.00
2003,07,18,14,10,26.20
2003,07,18,14,11,26.10
2003,07,18,14,12,26.10
2003,07,18,14,13,26.10
2003,07,18,14,14,26.20
2003,07,18,14,15,26.00
2003,07,18,14,16,26.30
2003,07,18,14,17,26.50
2003,07,18,14,18,26.20
2003,07,18,14,19,26.00
2003,07,18,14,20,25.90
2003,07,18,14,21,25.80
2003,07,18,14,22,25.80
2003,07,18,14,23,25.70
2003,07,18,14,24,25.80
2003,07,18,14,25,25.90
2003,07,18,14,26,25.90
2003,07,18,14,27,25.90
2003,07,18,14,28,25.90
2003,07,18,14,29,25.80
2003,07,18,14,30,25.90
2003,07,18,14,31,25.90
2003,07,18,14,32,26.00
2003,07,18,14,33,26.20
2003,07,18,14,34,26.40
2003,07,18,14,35,26.50
2003,07,18,14,36,26.50
2003,07,18,14,37,26.60
2003,07,18,14,38,26.50
2003,07,18,14,39,26.10
2003,07,18,14,40,25.90
2003,07,18,14,41,25.90
2003,07,18,14,42,26.00
2003,07,18,14,43,25.90
2003,07,18,14,44,26.10
2003,07,18,14,45,26.30
2003,07,18,14,46,26.40
2003,07,18,14,47,26.30
2003,07,18,14,48,26.30
2003,07,18,14,49,26.20
2003,07,18,14,50,26.30
2003,07,18,14,51,26.50
2003,07,18,14,52,26.60
2003,07,18,14,53,26.80
2003,07,18,14,54,27.10
2003,07,18,14,55,27.10
2003,07,18,14,56,27.20
2003,07,18,14,57,27.10
2003,07,18,14,58,26.60
2003,07,18,14,59,26.20
2003,07,18,15,00,25.90
2003,07,18,15,01,25.90
2003,07,18,15,02,25.80
2003,07,18,15,03,25.70
2003,07,18,15,04,25.70
2003,07,18,15,05,25.70
2003,07,18,15,06,25.50
2003,07,18,15,07,25.50
2003,07,18,15,08,25.60
2003,07,18,15,09,25.80
2003,07,18,15,10,25.80
2003,07,18,15,11,25.90
2003,07,18,15,12,26.00
2003,07,18,15,13,26.30
2003,07,18,15,14,26.50
2003,07,18,15,15,26.60
2003,07,18,15,16,26.80
2003,07,18,15,17,26.80
2003,07,18,15,18,26.60
2003,07,18,15,19,26.10
2003,07,18,15,20,26.10
2003,07,18,15,21,26.00
2003,07,18,15,22,26.20
2003,07,18,15,23,26.40
2003,07,18,15,24,26.50
2003,07,18,15,25,26.40
2003,07,18,15,26,26.50
2003,07,18,15,27,26.60
2003,07,18,15,28,26.60
2003,07,18,15,29,26.60
2003,07,18,15,30,26.50
2003,07,18,15,31,26.60
2003,07,18,15,32,26.70
2003,07,18,15,33,26.70
2003,07,18,15,34,26.80
2003,07,18,15,35,26.80
2003,07,18,15,36,26.80
2003,07,18,15,37,26.90
2003,07,18,15,38,26.90
2003,07,18,15,39,27.00
2003,07,18,15,40,27.00
2003,07,18,15,41,27.00
2003,07,18,15,42,27.30
2003,07,18,15,43,27.30
2003,07,18,15,44,27.30
2003,07,18,15,45,27.50
2003,07,18,15,46,27.70
2003,07,18,15,47,27.90
2003,07,18,15,48,27.90
2003,07,18,15,49,28.00
2003,07,18,15,50,28.20
2003,07,18,15,51,28.30
2003,07,18,15,52,28.20
2003,07,18,15,53,28.00
2003,07,18,15,54,27.80
2003,07,18,15,55,27.70
2003,07,18,15,56,27.60
2003,07,18,15,57,27.50
2003,07,18,15,58,27.60
2003,07,18,15,59,27.60
2003,07,18,16,00,27.60
2003,07,18,16,01,27.40
2003,07,18,16,02,27.40
2003,07,18,16,03,27.60
2003,07,18,16,04,27.80
2003,07,18,16,05,27.90
2003,07,18,16,06,28.00
2003,07,18,16,07,28.00
2003,07,18,16,08,27.90
2003,07,18,16,09,27.80
2003,07,18,16,10,27.40
2003,07,18,16,11,27.50
2003,07,18,16,12,27.40
2003,07,18,16,13,27.00
2003,07,18,16,14,26.80
2003,07,18,16,15,26.90
2003,07,18,16,16,27.00
2003,07,18,16,17,27.20
2003,07,18,16,18,27.40
2003,07,18,16,19,27.60
2003,07,18,16,20,27.80
2003,07,18,16,21,27.90
2003,07,18,16,22,27.90
2003,07,18,16,23,28.00
2003,07,18,16,24,28.20
2003,07,18,16,25,28.30
2003,07,18,16,26,28.30
2003,07,18,16,27,28.40
2003,07,18,16,28,28.60
2003,07,18,16,29,28.80
2003,07,18,16,30,28.90
2003,07,18,16,31,28.90
2003,07,18,16,32,28.80
2003,07,18,16,33,28.80
2003,07,18,16,34,28.90
2003,07,18,16,35,28.90
2003,07,18,16,36,29.00
2003,07,18,16,37,28.90
2003,07,18,16,38,28.80
2003,07,18,16,39,28.80
2003,07,18,16,40,28.80
2003,07,18,16,41,28.90
2003,07,18,16,42,28.90
2003,07,18,16,43,29.00
2003,07,18,16,44,29.00
2003,07,18,16,45,28.90
2003,07,18,16,46,29.00
2003,07,18,16,47,28.90
2003,07,18,16,48,28.90
2003,07,18,16,49,28.80
2003,07,18,16,50,28.90
2003,07,18,16,51,28.90
2003,07,18,16,52,28.70
2003,07,18,16,53,28.90
2003,07,18,16,54,28.90
2003,07,18,16,55,28.80
2003,07,18,16,56,28.70
2003,07,18,16,57,28.70
2003,07,18,16,58,28.70
2003,07,18,16,59,28.80
2003,07,18,17,00,28.80
2003,07,18,17,01,28.80
2003,07,18,17,02,28.70
2003,07,18,17,03,28.70
2003,07,18,17,04,28.80
2003,07,18,17,05,28.60
2003,07,18,17,06,28.70
2003,07,18,17,07,28.70
2003,07,18,17,08,28.90
2003,07,18,17,09,28.80
2003,07,18,17,10,28.90
2003,07,18,17,11,29.10
2003,07,18,17,12,29.20
2003,07,18,17,13,29.20
2003,07,18,17,14,29.30
2003,07,18,17,15,29.40
2003,07,18,17,16,29.40
2003,07,18,17,17,29.60
2003,07,18,17,18,29.60
2003,07,18,17,19,29.70